DELTA 1 DEB, 10662

Orbit data source: Space-Track

DELTA 1 DEB, 10662 is space debris in SSO originally from a launch on Thu, 29 Jul 1976 UTC launched from the Air Force Western Test Range (AFWTR). Debris objects in space refer to the collection of defunct objects orbiting the Earth. Examples of debris include non-operational satellites, rocket bodies, and fragments generated from explosions, collisions, or faulty payload assembly.

Loading next visibility...
Identifier
10662, 1976-077Y
Orbit
SSO
Country
Flag of USUS
Related business
Manufacturer
Unknown
Mission
Spacecraft
Bus & Motor
Unknown
Mass
Unknown
Launch date (UTC)
1976-07-29 (49 years ago)
Launch vehicle
Unknown
Launch site
Air Force Western Test Range (AFWTR)
Object type
Payload
Rocket body
Debris
Shape & HBR
Unknown shape, 0.2 m
Radar Cross Section
Small (<0.1 m²)

Expand to show TLE details & history
Last TLE update: 22 hours ago

TLE from 22 hours ago
0 DELTA 1 DEB
1 10662U 76077Y   25292.07932375  .00000694  00000-0  23769-2 0  9996
2 10662 100.8188 343.9530 0255545 357.8278  65.4380 12.91927493306165
Epoch: 2025-10-19T01:54Z
TLE epoch observation values (Epoch: 2025-10-19T01:54:13.571Z)
Latitude
63.86176°
Longitude
-95.20102°
Altitude
1,227.447 km
Speed
7.283 km/s
True Right ascension
21h 24m 37s
True Declination
63° 44' 02"
Sunlit
Object was in daylight at epoch
Visualization orbit readout
Latitude
Unknown
Longitude
Unknown
Altitude
Unknown
Speed
Unknown
Apparent Right ascension
Unknown
Apparent Declination
Unknown
Sunlit
N/A
Visualization observer readout
Local Sidereal Time
19:00:57
Azimuth
Unknown
Elevation
Unknown
Doppler factor
Unknown
Orbital elements
Apogee altitude
1,487.308 km
Perigee altitude
1,095.33 km
Semi-major axis
7,669.456 km
Eccentricity
0.02555
Inclination
100.8188°
RAAN
343.953°
Arg. of periapsis
357.8278°
True anomaly
68.13617°
Mean anomaly
65.438°
Eccentric anomaly
66.7836°
Mean motion
3.23144 °/min
Orbital period
111.41 mins
BSTAR
0.0023769
Loading maneuver chart data...
Computing Atmospheric mass density...
Loading historical data...
Loading historical data...
Loading historical data...
Loading historical data...
Loading historical data...
Loading historical data...
Loading historical data...

Documentation

Showing up to 5 results
|